Wind_Speed
7 6 8 8 4 4 10 6 11 7 13 10 10 10 9 12 7 5 24 22 24 21 18 16 15 17 15 16 16 14 15 14 14 13 11 9 8 8 7 7 6 6 8 9 8 8 8 8 9
9 5 8 5 2 3 5 10 8 13 9 13 8 4 12 12 10 15 18 23 23 21 19 16 16 16 15 15 14 14 14 13 13 12 10 10 8 7 5 5 5 6 8 9 8 8 8 9 10
7 5 8 5 1 4 4 7 11 8 5 5 6 5 6 9 6 18 21 25 23 21 18 18 18 15 14 15 12 11 12 12 11 11 10 8 6 5 4 4 6 7 7 8 8 8 8 8 9
7 6 5 6 9 8 8 6 4 9 8 5 4 11 10 6 12 13 25 24 23 20 18 18 17 14 14 13 11 10 9 11 9 8 7 6 6 5 4 5 7 7 7 7 7 7 7 8 9
8 4 3 5 7 3 7 6 2 11 2 4 8 4 12 5 8 20 27 25 21 22 17 15 14 15 15 14 14 11 9 9 6 5 6 5 5 5 6 8 7 6 6 6 6 7 7 7 8
6 4 2 5 4 3 4 2 1 6 2 6 2 10 8 10 12 23 25 23 22 18 16 17 16 16 15 14 12 9 9 6 6 5 5 6 6 7 7 8 6 5 4 4 4 6 7 7 7
6 5 7 7 3 5 3 4 5 5 5 7 1 8 10 12 18 23 22 21 23 19 18 17 15 16 14 9 13 13 11 10 7 5 5 5 7 7 8 7 6 4 3 2 3 5 7 7 6
3 4 9 4 9 6 3 4 3 2 1 2 3 6 10 16 21 23 22 18 20 18 19 16 16 15 16 16 15 16 12 12 9 8 5 7 7 8 7 7 6 4 4 3 3 4 6 6 5
6 3 9 10 10 8 6 4 5 4 3 5 3 9 17 21 24 24 24 18 17 13 16 17 16 18 17 16 16 18 14 12 9 7 4 5 10 8 7 7 6 5 5 5 5 5 6 6 4
6 9 7 9 11 9 5 3 4 4 8 2 10 10 18 21 21 27 21 18 21 20 16 19 15 15 17 16 19 16 14 11 11 9 7 6 8 8 4 8 9 8 6 3 3 6 7 7 10
6 6 4 9 10 7 7 4 3 6 9 6 13 13 15 19 20 22 26 22 20 20 18 18 18 17 17 15 20 17 12 12 12 10 10 6 7 5 8 11 11 9 6 6 5 8 10 10 7
4 6 5 5 4 1 2 3 4 4 6 6 1 13 15 16 16 20 20 23 23 25 21 20 19 19 17 17 15 15 13 16 15 16 9 6 8 7 10 3 4 5 8 3 4 4 1 3 2
7 6 3 2 1 2 2 2 3 3 3 5 6 10 14 15 16 17 27 30 27 20 21 17 18 15 15 15 13 12 12 12 15 14 12 10 12 7 5 1 2 5 4 4 4 2 5 5 6
4 5 3 4 4 2 3 1 3 6 8 7 8 11 13 14 16 16 17 20 22 22 19 19 19 16 13 13 11 12 12 13 11 12 12 10 7 8 6 4 5 3 4 6 6 4 5 4 6
4 4 5 7 6 4 10 9 6 5 8 9 10 11 12 12 15 18 20 20 18 18 20 20 18 18 15 14 11 11 13 12 11 13 11 10 8 8 1 5 2 3 3 2 1 2 3 3 3
8 8 5 8 5 3 10 7 8 6 9 10 11 12 12 14 15 17 21 21 21 18 19 18 18 20 18 16 13 13 10 9 14 13 12 12 8 4 6 8 9 6 4 5 3 4 3 3 4
8 7 5 1 4 6 4 8 7 10 10 10 11 14 13 14 16 19 20 21 21 19 20 20 17 17 19 14 14 12 11 13 15 15 12 12 9 9 8 7 5 5 4 5 5 4 4 3 4
7 5 1 5 3 8 11 8 8 13 10 11 12 13 15 16 16 21 22 21 24 27 22 21 19 16 18 16 15 14 13 12 14 13 13 12 11 9 8 9 4 6 7 6 6 3 3 6 4
7 10 10 7 6 9 11 14 11 10 13 10 11 14 17 17 18 23 22 23 22 23 25 23 22 18 14 16 15 15 17 14 15 15 8 9 11 10 10 10 8 5 3 2 4 6 7 8 6
11 12 12 3 4 10 12 13 14 5 8 10 13 14 15 18 19 22 24 24 24 23 23 23 22 19 19 18 19 15 14 18 18 16 16 13 13 10 10 5 10 8 7 4 4 4 6 6 5
13 14 11 9 12 20 8 8 3 6 2 5 9 13 16 17 19 21 24 27 25 25 25 25 24 23 22 19 18 13 11 11 17 17 16 15 15 14 12 9 4 6 7 8 5 5 6 8 3
14 6 3 8 12 11 11 7 10 5 7 10 12 13 13 16 18 20 22 26 28 26 25 25 25 24 23 21 18 18 17 19 18 19 19 19 17 16 14 11 9 7 9 3 6 6 4 5 4
12 4 9 11 13 15 15 7 10 8 2 7 5 2 14 15 18 19 21 27 27 27 26 26 26 27 24 25 21 21 19 19 13 20 17 19 20 18 17 15 11 10 11 10 9 6 5 4 8
10 8 16 18 14 12 9 8 11 10 6 8 5 3 5 12 15 17 23 25 25 27 28 27 28 28 27 26 25 22 21 18 17 17 18 17 19 18 18 18 15 12 12 10 9 8 6 5 4
10 13 12 7 8 4 10 6 3 9 6 8 5 4 5 10 13 17 19 20 25 27 28 28 28 28 28 27 25 24 22 20 19 18 20 22 18 17 23 21 18 16 14 10 10 10 7 6 6
13 15 10 4 8 2 7 3 6 7 4 4 9 6 3 7 12 15 18 21 25 26 28 27 29 29 28 28 27 24 22 20 19 20 20 21 19 22 18 23 21 18 16 15 13 12 10 12 9
7 8 12 11 14 8 9 9 10 9 8 7 10 9 6 3 5 12 16 21 23 26 28 29 29 30 29 29 26 24 24 23 20 21 21 18 19 22 19 24 22 21 19 18 17 16 13 12 9
14 14 10 9 9 9 2 8 5 10 6 7 8 10 9 8 3 8 14 21 23 25 26 27 30 30 30 28 26 26 25 24 21 20 22 22 20 22 19 21 20 21 20 19 18 18 17 15 14
10 13 12 13 9 12 12 3 4 5 9 7 10 10 11 12 10 8 9 16 20 21 23 26 28 29 29 29 28 26 26 25 23 21 21 21 21 19 20 21 22 22 19 20 20 19 17 19 17
9 13 16 13 13 12 8 16 13 5 13 10 11 8 9 11 11 12 5 8 10 18 20 23 25 27 28 28 27 28 26 26 25 25 22 22 22 21 21 19 20 20 21 22 21 20 19 17 16
Wind_Direction
267 263 290 272 262 188 74 53 71 131 92 86 76 45 123 55 32 82 137 131 141 141 144 141 140 138 132 131 141 141 139 135 141 138 139 137 127 119 114 100 102 104 109 111 118 126 137 135 128
300 290 237 279 301 66 71 60 81 62 65 99 106 149 87 70 59 126 131 138 141 139 142 143 144 134 130 120 128 147 139 137 140 143 141 138 139 135 123 111 112 116 113 120 122 121 130 136 132
284 274 270 296 104 329 118 86 89 100 122 121 117 7 21 73 101 134 135 146 143 139 139 149 139 126 125 126 124 123 129 138 139 136 140 145 151 149 148 136 132 123 127 125 125 126 129 135 134
294 207 215 248 39 72 73 110 109 104 103 33 10 98 103 49 134 133 146 154 139 141 139 140 140 127 115 110 119 116 116 122 134 134 143 158 167 162 157 151 130 134 128 128 125 129 134 137 131
226 233 237 88 108 53 87 74 340 152 174 105 90 86 74 117 127 134 151 150 154 145 143 141 137 120 114 119 123 124 123 129 132 156 165 172 174 176 158 141 149 152 144 138 135 138 138 136 140
251 255 197 120 121 103 89 165 329 120 143 104 200 100 75 125 154 151 157 152 145 144 143 145 133 120 135 148 144 149 144 166 150 159 182 184 175 160 149 152 153 157 156 140 146 157 149 145 145
349 59 27 51 98 116 85 162 219 157 80 11 35 70 112 142 144 154 158 155 147 151 143 143 144 137 151 162 176 182 177 181 158 152 162 173 165 159 160 159 162 154 153 146 125 148 151 156 167
293 287 78 60 91 62 107 209 327 285 357 235 332 281 145 140 156 153 145 130 147 167 146 156 152 158 162 173 187 189 190 186 179 165 160 168 171 173 171 167 164 149 155 154 158 158 159 147 142
238 331 57 47 45 89 121 206 176 239 228 253 90 43 121 145 160 154 139 134 145 162 164 167 179 150 168 175 181 179 190 191 188 190 172 181 180 175 198 172 161 155 167 180 171 178 178 179 180
335 59 34 18 48 80 116 342 154 192 242 123 147 99 125 153 168 153 156 162 165 172 175 155 165 158 166 175 174 177 190 193 194 196 188 208 233 203 178 168 204 181 193 214 204 199 207 197 200
38 38 5 60 32 32 72 186 259 264 25 248 191 133 151 165 174 173 157 171 175 176 157 162 171 167 170 174 176 187 190 198 198 198 198 196 226 172 207 199 192 180 208 226 207 191 198 211 211
80 46 11 16 84 349 46 68 248 326 52 30 6 133 160 171 180 174 164 177 183 173 180 181 164 173 181 172 181 194 196 195 194 203 200 188 213 183 223 185 164 155 182 149 199 168 20 150 213
29 27 347 56 54 309 81 258 317 261 190 139 122 149 166 181 179 184 171 174 197 167 182 172 163 180 192 178 178 195 186 203 202 187 188 196 228 188 205 136 3 64 76 133 163 158 135 152 166
358 332 26 31 43 181 278 255 257 131 150 152 157 164 169 186 177 178 186 187 183 177 176 176 168 184 193 202 190 198 183 176 172 180 192 198 228 194 171 176 190 133 98 106 110 56 137 186 189
320 268 169 38 11 10 312 227 182 136 161 162 172 172 166 184 182 182 190 184 187 183 180 183 185 184 193 202 188 202 192 196 184 192 181 194 222 183 261 190 215 163 146 157 171 200 171 179 204
229 232 231 86 335 25 300 113 112 155 184 183 179 173 174 178 184 186 182 192 183 183 177 193 195 183 189 198 191 202 184 187 184 198 189 194 201 184 215 216 193 162 187 192 204 228 168 170 182
182 259 53 198 73 317 300 319 155 169 198 211 186 173 183 177 179 182 187 196 173 179 187 189 197 187 181 186 193 198 192 191 181 187 180 180 193 201 219 245 180 162 206 195 211 204 258 173 218
351 325 301 329 27 318 298 282 288 158 200 217 192 193 187 183 190 179 186 191 188 174 193 193 194 198 177 184 199 194 194 182 189 196 194 164 194 195 207 217 126 189 195 193 210 252 206 260 255
318 273 285 288 48 292 303 297 287 265 182 213 220 200 188 199 183 179 190 187 194 185 180 190 198 198 182 189 201 200 186 192 191 196 198 171 205 187 221 215 185 213 221 301 183 219 230 221 242
267 263 265 310 258 300 293 296 269 279 237 199 201 224 209 190 189 182 188 190 194 189 192 192 201 192 194 196 207 203 206 187 195 189 195 196 202 195 202 245 177 190 179 187 195 228 234 238 248
247 260 284 332 318 281 250 278 153 140 185 202 228 215 210 202 195 183 188 193 193 190 193 193 199 191 198 214 204 201 202 205 192 191 205 200 201 207 214 197 240 175 223 181 191 207 254 300 259
264 218 312 285 286 312 305 295 122 158 205 206 214 199 215 201 197 188 189 197 194 190 194 193 196 196 200 205 201 197 201 207 200 208 200 201 200 204 206 202 205 206 226 181 203 215 261 281 300
273 21 291 284 274 277 269 246 128 186 32 348 351 238 179 192 194 198 190 195 202 192 193 193 194 199 200 201 214 195 209 218 213 202 204 202 194 205 209 208 206 208 222 215 216 184 214 243 311
274 280 260 244 248 255 80 293 159 107 27 12 13 175 162 178 191 193 185 194 203 195 190 196 192 197 200 202 210 208 205 212 211 218 205 199 212 204 210 210 210 213 222 218 215 206 216 267 282
230 253 263 226 243 108 90 283 101 98 48 16 49 132 167 165 187 182 187 191 198 200 193 193 192 199 200 204 208 212 212 212 214 214 217 211 212 217 204 206 208 213 218 218 213 204 201 215 246
202 250 295 316 312 26 167 247 93 81 146 36 83 77 151 188 177 185 190 196 196 200 194 194 196 200 200 203 208 210 211 214 216 214 214 218 213 218 219 208 209 212 215 215 214 210 217 212 223
174 244 273 313 288 240 256 129 197 149 193 119 88 73 100 211 229 189 187 200 198 201 197 197 198 199 203 203 204 206 208 214 214 210 220 225 221 218 206 206 207 213 213 214 216 222 224 242 236
263 312 285 242 260 286 54 278 200 185 120 56 62 62 43 43 352 252 195 196 203 202 201 200 202 201 203 203 203 206 206 209 217 213 210 222 223 220 202 204 211 213 214 212 215 223 221 229 233
180 232 224 253 288 308 291 60 35 263 87 59 55 36 28 26 11 333 233 206 199 204 203 200 206 203 206 204 203 205 206 206 209 213 215 216 223 215 217 204 207 214 211 214 213 226 241 211 222
270 287 291 282 277 263 296 298 103 57 78 65 61 36 39 24 15 1 325 218 216 206 206 205 206 208 207 207 204 206 207 206 205 209 210 212 217 222 211 219 214 214 213 213 215 221 230 236 229
Height
758 756 754 750 768 752 765 758 738 748 748 738 745 756 765 763 773 799 778 783 791 797 803 807 809 811 815 817 820 824 827 830 833 834 835 836 838 839 841 842 844 845 845 845 845 846 846 848 848
757 757 753 742 782 792 782 750 756 748 744 739 748 749 761 774 764 769 777 787 792 797 803 808 811 813 816 819 822 826 829 832 833 834 836 838 839 841 843 844 845 845 846 846 847 847 847 848 849
757 755 747 751 757 795 773 756 750 750 744 744 752 751 753 770 771 773 781 789 793 798 805 808 813 816 819 820 824 829 831 834 836 836 838 839 840 843 843 845 846 847 847 847 848 848 849 849 850
753 744 742 766 777 760 764 753 748 749 747 745 747 761 765 770 772 774 785 790 795 800 806 810 814 817 819 823 827 830 834 835 837 838 839 841 842 843 844 845 847 847 847 848 848 849 850 850 851
747 739 757 772 771 761 753 753 748 763 758 755 754 762 771 774 775 779 786 790 797 801 808 813 816 819 821 824 826 830 833 835 838 840 840 842 843 843 844 846 847 847 848 848 849 850 850 851 851
750 737 778 789 779 765 757 755 754 757 751 754 755 757 772 776 778 782 786 792 797 803 810 813 818 821 822 825 826 830 832 835 838 839 841 842 843 844 845 847 848 848 849 849 850 850 851 851 852
747 751 768 766 776 772 764 755 760 761 760 764 748 767 769 774 778 783 788 794 799 805 810 815 819 821 821 827 829 831 835 837 839 840 841 842 844 845 846 847 848 849 850 850 851 851 851 852 852
747 746 766 765 777 781 763 760 755 758 766 751 748 787 774 771 779 785 791 797 800 805 810 817 819 823 825 827 829 833 835 838 839 840 841 843 844 846 846 847 848 849 850 850 851 851 852 852 852
739 762 773 770 768 773 763 763 757 752 758 752 751 752 758 772 777 785 792 799 803 807 811 814 818 820 825 827 830 833 836 838 840 841 842 843 843 845 846 847 847 848 849 849 850 851 851 852 852
745 764 772 755 752 763 762 759 759 760 757 757 755 759 767 774 777 782 793 799 804 809 812 814 818 822 826 829 831 834 835 838 840 842 843 843 841 842 843 845 844 846 847 848 848 850 850 850 851
749 770 756 753 753 751 759 761 754 755 781 763 771 759 768 772 776 778 792 799 801 805 810 814 817 821 825 828 831 833 837 839 840 841 842 843 840 841 842 839 841 842 845 847 848 847 847 847 846
760 754 754 753 750 753 758 755 758 755 756 751 750 755 766 770 773 774 788 796 798 799 806 809 812 819 822 825 828 831 834 836 837 839 842 842 840 841 838 838 830 838 843 845 846 846 847 847 848
758 755 749 747 748 749 750 757 758 755 749 751 752 758 764 768 770 773 781 791 794 797 802 806 812 817 820 823 825 829 831 834 835 837 840 841 838 840 839 840 840 842 844 845 847 846 848 849 849
750 751 749 745 745 744 753 751 752 750 746 751 754 758 762 765 769 773 778 785 788 794 799 804 812 816 819 822 824 826 828 831 832 835 838 840 839 841 842 843 843 844 846 847 848 847 847 847 845
747 758 750 751 748 748 742 756 756 743 744 751 753 756 759 764 767 772 777 781 787 793 798 802 808 813 818 821 823 825 826 830 833 834 836 839 840 841 841 842 842 845 847 849 849 849 847 846 845
756 752 767 754 750 746 745 763 746 741 746 749 748 753 758 761 765 771 776 781 786 793 798 802 806 809 815 819 821 823 825 829 831 832 835 838 840 842 842 842 841 843 846 846 847 846 845 844 843
752 767 767 764 747 751 750 762 738 736 742 744 746 749 755 759 763 769 772 777 783 792 797 801 805 809 812 817 820 821 824 827 830 832 833 837 840 842 842 841 839 844 845 845 845 845 845 843 842
769 769 764 768 753 751 752 751 733 728 736 739 739 742 750 755 759 765 770 775 779 787 795 799 803 807 811 815 818 819 822 825 829 830 832 835 838 840 841 840 841 844 843 843 844 844 843 842 842
764 769 769 754 746 757 755 750 736 724 725 735 736 737 740 747 751 760 767 771 775 781 789 796 801 805 809 813 815 816 819 823 826 831 832 834 837 838 839 838 842 844 843 844 845 844 843 841 840
764 768 765 749 744 749 746 748 728 720 721 722 729 730 732 736 742 753 763 768 772 777 785 792 797 803 807 811 813 814 816 819 824 827 831 834 836 837 838 838 840 843 843 845 845 844 840 839 838
762 765 758 765 752 736 742 742 736 723 721 719 718 718 721 727 734 743 754 762 769 775 782 788 794 799 805 806 809 812 815 818 821 825 829 831 834 836 837 838 840 841 842 843 845 844 841 838 837
764 739 752 762 765 773 733 771 744 732 728 719 712 714 715 720 727 734 745 755 761 769 779 785 792 796 800 803 804 810 813 814 817 821 824 827 832 834 836 839 840 842 842 843 844 843 841 839 837
757 744 752 755 760 752 735 751 749 728 733 723 710 704 706 713 719 727 737 748 755 763 773 780 787 791 795 799 801 805 811 812 814 816 818 823 827 831 834 836 838 841 841 842 841 842 842 841 839
742 751 748 742 740 762 742 749 741 739 735 724 713 708 706 710 715 724 732 742 750 757 765 774 781 787 792 795 799 802 805 809 812 813 815 821 822 826 830 833 836 838 839 841 841 844 843 841 840
750 758 767 769 767 762 736 752 735 726 722 716 717 712 709 709 714 721 728 736 744 749 758 767 775 782 787 791 795 798 801 804 808 811 813 814 818 819 823 828 831 834 837 838 839 841 841 841 841
746 747 763 787 771 763 733 759 740 716 712 709 708 708 710 711 711 717 726 732 739 745 752 762 770 776 781 786 790 794 797 801 804 807 808 810 814 817 820 823 826 829 832 834 836 838 838 838 839
745 761 729 751 738 754 737 727 712 711 712 708 712 712 714 713 710 714 721 728 734 741 748 757 764 771 776 780 785 790 794 797 798 801 805 807 808 811 813 817 821 824 827 830 832 833 834 835 837
740 728 761 746 783 786 753 758 740 725 719 715 717 718 720 716 716 712 714 722 729 737 744 753 758 763 769 774 780 784 788 791 794 797 800 803 805 807 809 814 818 821 823 825 828 829 830 832 834
743 750 745 740 746 769 770 758 725 727 719 725 724 727 727 725 723 718 713 717 725 732 738 746 753 758 764 768 772 777 782 785 789 792 795 799 801 803 806 810 813 817 820 822 824 826 826 827 830
730 744 744 760 763 747 756 754 705 714 719 724 734 734 735 734 731 724 718 720 723 728 734 740 746 752 758 762 767 772 776 780 783 786 790 794 797 800 803 806 809 813 816 818 820 822 823 824 825